Welcome to Northern Hawkes Bay. New Zealand.
PWS Header
      nz Flag



Hit Counter


W3C Valid W3C Valid logo


    Wairoa

Select any of the Stations below to visit their websites.










Historic Data from Weather Underground
Select the location of interest below. Wairoa is the default. Please have patience, this Data is slow to load in.
Northern Hawkes Bay Historical Data
Daily Summary for May 1, 2017 Units:  English    Metric   Both
« Previous Day
Next Day »
Daily Weekly Monthly Yearly Custom
  High: Low: Average:
Temperature: 55.2 °F 49.1 °F 51.6 °F
Dew Point: 52.3 °F 43 °F 47.7 °F
Humidity: 99% 64% 86%
Wind Speed: 28.9mph 0mph 14.7mph
Wind Gust: 41.8mph - -
Wind- - WSW
Pressure: 30.1 in 29.6 in -
Precipitation: 1.82 in    
Historical Graphs
 
 
Tabular Data for May 1, 2017
Time Temperature Dew Point Pressure Wind Wind Speed Wind Gust Humidity Rainfall Rate (Hourly) solar
00:04 52.5 °F 51.6 °F 29.6 in WNW 0.7 mph 10.7 mph 97% 0.05 in 0 W/m2
00:09 52.3 °F 51.4 °F 29.6 in WNW 2.2 mph 9.8 mph 97% 0.04 in 0 W/m2
00:14 52.3 °F 51.4 °F 29.6 in WNW 3.1 mph 9.8 mph 97% 0.04 in 0 W/m2
00:19 52.3 °F 51.4 °F 29.6 in WNW 1.6 mph 5.4 mph 97% 0.02 in 0 W/m2
00:24 52.3 °F 51.4 °F 29.6 in Calm   6.9 mph 97% 0.02 in 0 W/m2
00:29 52.3 °F 51.4 °F 29.6 in West 1.6 mph 6.9 mph 97% 0.04 in 0 W/m2
00:34 52.3 °F 51.4 °F 29.6 in WNW 3.1 mph 5.4 mph 97% 0.02 in 0 W/m2
00:39 52.3 °F 51.4 °F 29.6 in WNW 2.2 mph 9.8 mph 97% 0.02 in 0 W/m2
00:44 52.3 °F 51.4 °F 29.6 in WNW 1.6 mph 9.8 mph 97% 0.02 in 0 W/m2
01:01 52.3 °F 51.4 °F 29.6 in WSW 0.7 mph 6 mph 97% 0.01 in 0 W/m2
01:06 52.3 °F 51.4 °F 29.6 in West 0.7 mph 6.9 mph 97% 0.01 in 0 W/m2
01:11 52.5 °F 51.6 °F 29.6 in Calm   6.9 mph 97% 0.01 in 0 W/m2
01:16 52.3 °F 51.8 °F 29.6 in WNW 2.2 mph 5.4 mph 98% 0.02 in 0 W/m2
01:21 52.3 °F 51.8 °F 29.6 in Calm   6 mph 98% 0.02 in 0 W/m2
01:26 52.3 °F 51.8 °F 29.6 in Calm   6 mph 98% 0.01 in 0 W/m2
01:31 52.3 °F 51.8 °F 29.6 in WNW 0.7 mph 4.5 mph 98% 0.01 in 0 W/m2
01:36 52.3 °F 51.8 °F 29.6 in WNW 0.7 mph 6.9 mph 98% 0.01 in 0 W/m2
01:41 52.3 °F 51.8 °F 29.6 in WNW 0.7 mph 6.9 mph 98% 0.01 in 0 W/m2
01:46 52.3 °F 51.8 °F 29.6 in Calm   6 mph 98% 0.02 in 0 W/m2
01:51 52.3 °F 51.8 °F 29.6 in WNW 1.6 mph 3.8 mph 98% 0.02 in 0 W/m2
01:56 52.3 °F 51.8 °F 29.6 in NW 1.6 mph 4.5 mph 98% 0.02 in 0 W/m2
02:01 52.2 °F 51.6 °F 29.6 in NW 1.6 mph 6.9 mph 98% 0.04 in 0 W/m2
02:06 52.2 °F 51.6 °F 29.6 in NW 2.2 mph 6.9 mph 98% 0.06 in 0 W/m2
02:11 52 °F 51.4 °F 29.6 in West 2.2 mph 8.3 mph 98% 0.07 in 0 W/m2
02:16 52.2 °F 51.6 °F 29.6 in West 1.6 mph 8.3 mph 98% 0.09 in 0 W/m2
02:21 52.2 °F 51.6 °F 29.6 in West 0.7 mph 9.2 mph 98% 0.11 in 0 W/m2
02:26 52.3 °F 51.8 °F 29.6 in West 6.9 mph 16.8 mph 98% 0.15 in 0 W/m2
02:31 52.7 °F 52.2 °F 29.6 in WSW 9.8 mph 16.8 mph 98% 0.18 in 0 W/m2
02:36 52.9 °F 52.3 °F 29.6 in West 8.3 mph 16.8 mph 98% 0.22 in 0 W/m2
02:41 52.5 °F 52 °F 29.6 in WSW 9.8 mph 18.3 mph 98% 0.25 in 0 W/m2
02:46 52.3 °F 51.8 °F 29.6 in WSW 10.7 mph 18.3 mph 98% 0.27 in 0 W/m2
02:51 52 °F 51.4 °F 29.6 in West 8.3 mph 20.6 mph 98% 0.3 in 0 W/m2
02:56 52 °F 51.4 °F 29.6 in West 9.8 mph 23.5 mph 98% 0.32 in 0 W/m2
03:01 51.8 °F 51.3 °F 29.6 in WSW 9.8 mph 26.6 mph 98% 0.33 in 0 W/m2
03:06 51.8 °F 51.3 °F 29.6 in SW 17.4 mph 33.6 mph 98% 0.37 in 0 W/m2
03:11 51.6 °F 51.4 °F 29.6 in SW 17.4 mph 33.6 mph 99% 0.39 in 0 W/m2
03:16 51.6 °F 51.4 °F 29.6 in WSW 22.8 mph 38 mph 99% 0.39 in 0 W/m2
03:21 51.4 °F 51.3 °F 29.6 in WSW 22.1 mph 38 mph 99% 0.41 in 0 W/m2
03:25 51.4 °F 51.3 °F 29.6 in WSW 15.2 mph 35.8 mph 99% 0.39 in 0 W/m2
03:30 51.3 °F 51.1 °F 29.6 in WSW 9.8 mph 34.9 mph 99% 0.37 in 0 W/m2
03:36 50.9 °F 50.5 °F 29.6 in WSW 19 mph 30.4 mph 99% 0.34 in 0 W/m2
03:41 51.3 °F 51.1 °F 29.6 in WSW 19.7 mph 30.4 mph 99% 0.37 in 0 W/m2
03:46 51.1 °F 50.7 °F 29.6 in West 14.5 mph 28.9 mph 99% 0.37 in 0 W/m2
03:51 50.7 °F 50.5 °F 29.6 in West 12.1 mph 29.8 mph 99% 0.39 in 0 W/m2
03:56 50.5 °F 50.4 °F 29.6 in WSW 18.3 mph 29.8 mph 99% 0.39 in 0 W/m2
04:01 50.7 °F 50.5 °F 29.6 in West 17.4 mph 28.2 mph 99% 0.4 in 0 W/m2
04:06 50.7 °F 50.5 °F 29.6 in WSW 20.6 mph 28.9 mph 99% 0.37 in 0 W/m2
04:11 50.9 °F 50.5 °F 29.6 in SW 16.8 mph 34.9 mph 99% 0.37 in 0 W/m2
04:16 50.7 °F 50.5 °F 29.6 in SW 18.3 mph 34.9 mph 99% 0.35 in 0 W/m2
04:21 50.7 °F 50.2 °F 29.6 in SW 20.6 mph 30.4 mph 98% 0.35 in 0 W/m2
04:26 50.7 °F 50.2 °F 29.6 in WSW 21.3 mph 32.7 mph 98% 0.37 in 0 W/m2
04:31 50.9 °F 50.2 °F 29.6 in WSW 20.6 mph 34.2 mph 97% 0.39 in 0 W/m2
04:36 50.9 °F 49.8 °F 29.6 in WSW 28.2 mph 38 mph 96% 0.38 in 0 W/m2
04:41 50.7 °F 49.3 °F 29.6 in WSW 21.3 mph 38 mph 95% 0.35 in 0 W/m2
04:46 50.9 °F 49.5 °F 29.6 in WSW 16.8 mph 38 mph 95% 0.33 in 0 W/m2
04:51 51.1 °F 49.5 °F 29.6 in WSW 23.5 mph 34.2 mph 94% 0.31 in 0 W/m2
04:56 51.3 °F 49.3 °F 29.6 in WSW 17.4 mph 34.2 mph 93% 0.28 in 0 W/m2
05:01 51.4 °F 49.5 °F 29.6 in West 22.1 mph 37.4 mph 93% 0.28 in 0 W/m2
05:07 51.8 °F 48.9 °F 29.6 in WSW 16.8 mph 37.4 mph 90% 0.25 in 0 W/m2
05:12 51.6 °F 48.7 °F 29.6 in SW 22.8 mph 30.4 mph 90% 0.22 in 0 W/m2
05:17 51.8 °F 48 °F 29.6 in WSW 20.6 mph 34.9 mph 87% 0.19 in 0 W/m2
05:22 52 °F 47.8 °F 29.6 in WSW 21.3 mph 34.9 mph 86% 0.17 in 0 W/m2
05:27 52.3 °F 48.4 °F 29.6 in WSW 23.5 mph 36.5 mph 86% 0.13 in 0 W/m2
05:32 52.3 °F 48 °F 29.6 in WSW 24.4 mph 36.5 mph 85% 0.12 in 0 W/m2
05:37 51.8 °F 48 °F 29.6 in WSW 19.7 mph 32 mph 87% 0.09 in 0 W/m2
05:42 51.8 °F 48.4 °F 29.6 in WSW 19.7 mph 33.6 mph 88% 0.08 in 0 W/m2
05:47 51.8 °F 48 °F 29.6 in WSW 19.7 mph 33.6 mph 87% 0.09 in 0 W/m2
05:52 51.8 °F 48.4 °F 29.6 in WSW 22.8 mph 32.7 mph 88% 0.09 in 0 W/m2
05:57 51.8 °F 48 °F 29.6 in West 22.1 mph 35.8 mph 87% 0.08 in 0 W/m2
06:02 51.8 °F 48 °F 29.7 in WSW 21.3 mph 35.8 mph 87% 0.08 in 0 W/m2
06:07 51.8 °F 47.8 °F 29.7 in SW 18.3 mph 35.8 mph 86% 0.08 in 0 W/m2
06:12 51.8 °F 48 °F 29.7 in SW 21.3 mph 32 mph 87% 0.08 in 0 W/m2
06:17 51.6 °F 48.2 °F 29.7 in WSW 21.3 mph 38 mph 88% 0.09 in 0 W/m2
06:22 51.8 °F 48 °F 29.7 in WSW 19 mph 38 mph 87% 0.11 in 0 W/m2
06:27 51.6 °F 48.2 °F 29.7 in WSW 19.7 mph 35.8 mph 88% 0.12 in 0 W/m2
06:32 51.6 °F 48.6 °F 29.7 in WSW 17.4 mph 32.7 mph 89% 0.11 in 0 W/m2
06:37 51.6 °F 48.6 °F 29.7 in WSW 27.3 mph 38.7 mph 89% 0.11 in 0 W/m2
06:42 52 °F 47.8 °F 29.7 in WSW 20.6 mph 38.7 mph 86% 0.11 in 0 W/m2
06:47 52 °F 48.2 °F 29.7 in WSW 18.3 mph 38.7 mph 87% 0.09 in 0 W/m2
06:52 51.6 °F 48.2 °F 29.7 in WSW 17.4 mph 37.4 mph 88% 0.08 in 0 W/m2
06:57 51.6 °F 48.2 °F 29.7 in SW 22.1 mph 32.7 mph 88% 0.07 in 0 W/m2
07:02 51.8 °F 48 °F 29.7 in SW 18.3 mph 39.6 mph 87% 0.07 in 0 W/m2
07:07 51.6 °F 48.2 °F 29.7 in SW 19.7 mph 39.6 mph 88% 0.07 in 0 W/m2
07:12 51.6 °F 47.8 °F 29.7 in SW 21.3 mph 36.5 mph 87% 0.07 in 2 W/m2
07:17 51.4 °F 48 °F 29.7 in SW 17.4 mph 36.5 mph 88% 0.07 in 2 W/m2
07:22 51.3 °F 47.5 °F 29.7 in WSW 15.9 mph 36.5 mph 87% 0.06 in 4 W/m2
07:27 51.6 °F 47.7 °F 29.7 in WSW 18.3 mph 34.9 mph 86% 0.05 in 3 W/m2
07:32 51.4 °F 47.5 °F 29.7 in WSW 25.1 mph 34.9 mph 86% 0.05 in 7 W/m2
07:37 51.4 °F 47.7 °F 29.7 in WSW 19 mph 35.8 mph 87% 0.04 in 7 W/m2
07:42 51.8 °F 47.5 °F 29.7 in West 23.5 mph 35.8 mph 85% 0.04 in 8 W/m2
07:47 51.6 °F 47.8 °F 29.7 in West 25.9 mph 34.9 mph 87% 0.02 in 9 W/m2
07:52 51.8 °F 47.8 °F 29.7 in WSW 22.8 mph 38 mph 86% 0.04 in 13 W/m2
07:57 51.3 °F 47.5 °F 29.7 in WSW 28.9 mph 38 mph 87% 0.04 in 15 W/m2
08:02 51.6 °F 47.7 °F 29.7 in WSW 20.6 mph 38 mph 86% 0.02 in 24 W/m2
08:07 51.6 °F 47.8 °F 29.8 in WSW 20.6 mph 38 mph 87% 0.02 in 24 W/m2
08:12 51.6 °F 47.8 °F 29.8 in SW 19 mph 37.4 mph 87% 0.02 in 27 W/m2
08:17 51.4 °F 47.5 °F 29.8 in SW 21.3 mph 41.8 mph 86% 0.01 in 27 W/m2
08:22 52 °F 47.3 °F 29.8 in SW 16.8 mph 41.8 mph 84% 0.01 in 39 W/m2
08:27 51.8 °F 47.5 °F 29.8 in SW 20.6 mph 37.4 mph 85% 0.01 in 47 W/m2
08:32 51.6 °F 47.3 °F 29.8 in WSW 14.5 mph 37.4 mph 85% 0.01 in 45 W/m2
08:37 51.6 °F 47.8 °F 29.8 in SW 22.1 mph 36.5 mph 87% 0.01 in 39 W/m2
08:57 50.7 °F 47.7 °F 29.8 in SW 19.7 mph 32.7 mph 89% 0.01 in 82 W/m2
09:02 51.4 °F 48 °F 29.8 in SW 18.3 mph 31.1 mph 88% 0.01 in 61 W/m2
09:07 51.6 °F 47.7 °F 29.8 in SW 19.7 mph 31.1 mph 86% 0.01 in 39 W/m2
09:12 51.8 °F 47.1 °F 29.8 in SW 16.8 mph 31.1 mph 84% 0.01 in 48 W/m2
09:17 51.8 °F 46.8 °F 29.8 in SW 22.8 mph 32 mph 83% 0.01 in 51 W/m2
09:22 51.8 °F 46.8 °F 29.8 in SW 21.3 mph 32.7 mph 83% 0.02 in 80 W/m2
09:27 52 °F 46.9 °F 29.8 in SW 17.4 mph 32.7 mph 83% 0.02 in 83 W/m2
09:32 52 °F 46.8 °F 29.8 in WSW 15.9 mph 34.2 mph 82% 0.02 in 103 W/m2
09:37 51.6 °F 46.9 °F 29.8 in WSW 15.9 mph 34.2 mph 84% 0.02 in 111 W/m2
09:42 51.1 °F 46.9 °F 29.8 in SW 19.7 mph 29.8 mph 86% 0.02 in 97 W/m2
09:47 51.4 °F 47.1 °F 29.8 in SW 18.3 mph 34.2 mph 85% 0.05 in 137 W/m2
09:52 51.8 °F 46.8 °F 29.8 in SW 21.3 mph 34.2 mph 83% 0.04 in 82 W/m2
09:57 52 °F 46.8 °F 29.8 in West 17.4 mph 33.6 mph 82% 0.04 in 88 W/m2
10:02 52.2 °F 46.8 °F 29.8 in West 17.4 mph 32.7 mph 82% 0.04 in 102 W/m2
10:07 52.5 °F 47.5 °F 29.8 in WSW 20.6 mph 35.8 mph 83% 0.04 in 102 W/m2
10:12 52.5 °F 47.1 °F 29.8 in WSW 17.4 mph 35.8 mph 82% 0.04 in 90 W/m2
10:17 52.2 °F 46.8 °F 29.8 in WSW 21.3 mph 34.9 mph 82% 0.04 in 135 W/m2
10:22 52.2 °F 46.8 °F 29.8 in SW 19.7 mph 34.9 mph 82% 0.02 in 166 W/m2
10:27 52.7 °F 46.9 °F 29.8 in SW 21.3 mph 33.6 mph 81% 0.02 in 150 W/m2
10:32 52.7 °F 47.5 °F 29.8 in SW 12.1 mph 32.7 mph 82% 0.02 in 178 W/m2
10:37 52.2 °F 47.1 °F 29.8 in SW 13.6 mph 31.1 mph 83% 0.02 in 239 W/m2
10:42 52.3 °F 46.9 °F 29.8 in SW 22.1 mph 32.7 mph 82% 0.02 in 117 W/m2
10:47 52.2 °F 47.1 °F 29.8 in SW 16.8 mph 32.7 mph 83% 0 in 179 W/m2
10:52 52.2 °F 46.8 °F 29.8 in WSW 8.3 mph 29.8 mph 82% 0 in 166 W/m2
10:57 52.3 °F 46.9 °F 29.8 in SW 18.3 mph 30.4 mph 82% 0 in 146 W/m2
11:02 51.6 °F 47.3 °F 29.8 in SW 11.4 mph 30.4 mph 85% 0 in 105 W/m2
11:07 50.9 °F 46.9 °F 29.8 in SW 17.4 mph 27.3 mph 86% 0.01 in 74 W/m2
11:12 51.1 °F 47.5 °F 29.8 in SW 15.2 mph 27.3 mph 87% 0.02 in 94 W/m2
11:17 51.8 °F 47.5 °F 29.8 in SW 18.3 mph 28.9 mph 85% 0.02 in 90 W/m2
11:22 52 °F 47.3 °F 29.8 in SW 18.3 mph 32.7 mph 84% 0.02 in 137 W/m2
11:27 52 °F 46.9 °F 29.8 in WSW 13.6 mph 32.7 mph 83% 0.02 in 167 W/m2
11:32 52.2 °F 47.1 °F 29.8 in SW 12.1 mph 29.8 mph 83% 0.02 in 186 W/m2
11:37 52.5 °F 47.5 °F 29.8 in SW 13 mph 28.2 mph 83% 0.02 in 171 W/m2
11:42 52.5 °F 47.1 °F 29.8 in SW 13 mph 28.2 mph 82% 0.02 in 177 W/m2
11:47 52.7 °F 46.9 °F 29.8 in SW 15.9 mph 28.2 mph 81% 0.02 in 148 W/m2
11:52 52.9 °F 46.9 °F 29.8 in SW 16.8 mph 27.3 mph 80% 0.02 in 96 W/m2
11:57 51.8 °F 46.8 °F 29.8 in SW 22.8 mph 28.9 mph 83% 0.04 in 157 W/m2
12:02 51.8 °F 47.1 °F 29.8 in SW 21.3 mph 28.9 mph 84% 0.04 in 104 W/m2
12:07 51.1 °F 46.4 °F 29.8 in SW 20.6 mph 33.6 mph 84% 0.02 in 104 W/m2
12:12 51.3 °F 46.9 °F 29.8 in SW 15.2 mph 33.6 mph 85% 0.01 in 84 W/m2
12:17 51.3 °F 46.9 °F 29.8 in SW 15.9 mph 31.1 mph 85% 0.01 in 112 W/m2
12:22 51.1 °F 46.9 °F 29.9 in SW 15.9 mph 24.4 mph 86% 0.02 in 97 W/m2
12:27 50.9 °F 47.5 °F 29.8 in SW 13 mph 23.5 mph 88% 0.04 in 51 W/m2
12:32 51.1 °F 47.7 °F 29.9 in SW 17.4 mph 26.6 mph 88% 0.05 in 82 W/m2
12:37 51.3 °F 46.9 °F 29.8 in SW 10.7 mph 26.6 mph 85% 0.05 in 85 W/m2
12:42 51.3 °F 46.9 °F 29.8 in SW 9.2 mph 25.9 mph 85% 0.06 in 99 W/m2
12:47 51.4 °F 46.8 °F 29.8 in SW 15.9 mph 24.4 mph 84% 0.06 in 77 W/m2
12:52 51.8 °F 46.6 °F 29.8 in SSW 15.9 mph 28.9 mph 82% 0.06 in 62 W/m2
12:57 51.8 °F 46.2 °F 29.8 in SW 17.4 mph 29.8 mph 81% 0.06 in 88 W/m2
13:02 52.2 °F 45.9 °F 29.8 in SW 13 mph 29.8 mph 79% 0.06 in 126 W/m2
13:07 52.7 °F 46.4 °F 29.8 in SW 13.6 mph 25.9 mph 79% 0.06 in 139 W/m2
13:12 53.2 °F 46.6 °F 29.8 in SW 14.5 mph 25.9 mph 78% 0.06 in 88 W/m2
13:17 53.2 °F 45.9 °F 29.8 in SSW 11.4 mph 24.4 mph 76% 0.05 in 111 W/m2
13:22 53.1 °F 45.7 °F 29.9 in SSW 18.3 mph 29.8 mph 76% 0.05 in 47 W/m2
13:27 51.4 °F 46.6 °F 29.9 in SSW 16.8 mph 33.6 mph 83% 0.05 in 82 W/m2
13:32 51.3 °F 46.2 °F 29.8 in SW 13 mph 33.6 mph 83% 0.04 in 110 W/m2
13:37 52.2 °F 45.5 °F 29.9 in SW 16.8 mph 26.6 mph 78% 0.04 in 136 W/m2
13:42 52.9 °F 45.5 °F 29.9 in SW 14.5 mph 32.7 mph 76% 0.04 in 157 W/m2
13:47 53.4 °F 46 °F 29.9 in SW 11.4 mph 32.7 mph 76% 0.04 in 205 W/m2
13:52 53.8 °F 46 °F 29.9 in SW 21.3 mph 32 mph 75% 0.04 in 176 W/m2
13:57 54.7 °F 43.9 °F 29.9 in SW 14.5 mph 32 mph 67% 0.02 in 133 W/m2
14:02 54.9 °F 43 °F 29.9 in SSW 15.9 mph 32 mph 64% 0.02 in 142 W/m2
14:07 54.5 °F 45 °F 29.9 in SW 11.4 mph 30.4 mph 70% 0.02 in 98 W/m2
14:12 54.1 °F 45.7 °F 29.9 in SW 16.8 mph 25.9 mph 73% 0.02 in 203 W/m2
14:17 55.2 °F 46 °F 29.9 in WSW 16.8 mph 28.2 mph 71% 0.02 in 205 W/m2
14:22 54.5 °F 45.3 °F 29.9 in SW 6 mph 28.2 mph 71% 0.02 in 85 W/m2
14:27 53.6 °F 45.1 °F 29.9 in SW 14.5 mph 24.4 mph 73% 0.01 in 85 W/m2
14:32 52.7 °F 45.3 °F 29.9 in SW 9.8 mph 24.4 mph 76% 0.01 in 111 W/m2
14:37 53.4 °F 45.7 °F 29.9 in SSW 13 mph 24.4 mph 75% 0 in 178 W/m2
14:42 54.3 °F 45.5 °F 29.9 in SW 13.6 mph 24.4 mph 72% 0 in 191 W/m2
14:47 54.5 °F 45.7 °F 29.9 in SW 22.1 mph 31.1 mph 72% 0 in 106 W/m2
14:52 51.3 °F 46.2 °F 29.9 in SW 18.3 mph 33.6 mph 83% 0.04 in 79 W/m2
14:57 51.1 °F 46.9 °F 29.9 in SW 20.6 mph 33.6 mph 86% 0.05 in 81 W/m2
15:01 51.8 °F 46.8 °F 29.9 in SW 24.4 mph 32.7 mph 83% 0.05 in 108 W/m2
15:06 52.2 °F 45.5 °F 29.9 in SW 19.7 mph 30.4 mph 78% 0.05 in 90 W/m2
15:11 52.9 °F 45.9 °F 29.9 in SW 16.8 mph 29.8 mph 77% 0.05 in 77 W/m2
15:16 52.5 °F 45.1 °F 29.9 in SSW 23.5 mph 29.8 mph 76% 0.05 in 54 W/m2
15:22 52 °F 45.3 °F 29.9 in SSW 11.4 mph 29.8 mph 78% 0.05 in 67 W/m2
15:27 52.7 °F 45.3 °F 29.9 in SW 9.8 mph 22.1 mph 76% 0.05 in 92 W/m2
15:32 53.1 °F 45.3 °F 29.9 in SW 9.8 mph 22.1 mph 75% 0.05 in 36 W/m2
15:37 52.2 °F 45.5 °F 29.9 in SSW 13 mph 28.9 mph 78% 0.06 in 18 W/m2
15:42 50 °F 45.7 °F 29.9 in SSW 13 mph 28.9 mph 85% 0.15 in 18 W/m2
15:47 49.1 °F 45.7 °F 29.9 in SSW 9.2 mph 28.9 mph 88% 0.14 in 23 W/m2
15:52 50.7 °F 47.3 °F 29.9 in SSW 14.5 mph 22.8 mph 88% 0.14 in 44 W/m2
15:57 51.6 °F 46.9 °F 29.9 in SW 19.7 mph 25.9 mph 84% 0.13 in 64 W/m2
16:02 52.2 °F 45.5 °F 29.9 in SW 13 mph 25.9 mph 78% 0.13 in 55 W/m2
16:07 52.2 °F 45.1 °F 29.9 in SW 13 mph 23.5 mph 77% 0.13 in 33 W/m2
16:12 51.6 °F 45.7 °F 29.9 in SSW 12.1 mph 23.5 mph 80% 0.13 in 17 W/m2
16:17 51.6 °F 46.6 °F 29.9 in SSW 14.5 mph 25.1 mph 83% 0.15 in 26 W/m2
16:22 52.3 °F 46 °F 29.9 in SSW 14.5 mph 30.4 mph 79% 0.15 in 21 W/m2
16:27 52.2 °F 46.8 °F 29.9 in SSW 16.8 mph 30.4 mph 82% 0.15 in 22 W/m2
16:32 51.6 °F 46.6 °F 29.9 in WSW 20.6 mph 30.4 mph 83% 0.15 in 21 W/m2
16:37 51.3 °F 46.6 °F 29.9 in WSW 14.5 mph 32 mph 84% 0.12 in 20 W/m2
16:42 50.9 °F 46.6 °F 29.9 in SW 11.4 mph 32 mph 85% 0.04 in 12 W/m2
16:47 50.9 °F 46.9 °F 29.9 in SSW 15.9 mph 28.9 mph 86% 0.06 in 6 W/m2
16:52 50.5 °F 46.8 °F 29.9 in SSW 6 mph 28.9 mph 87% 0.05 in 9 W/m2
16:57 50.7 °F 46.9 °F 29.9 in SSW 15.9 mph 25.1 mph 87% 0.06 in 8 W/m2
17:02 51.4 °F 46.8 °F 29.9 in SSW 18.3 mph 25.1 mph 84% 0.06 in 7 W/m2
17:07 51.3 °F 46.6 °F 29.9 in SW 13.6 mph 26.6 mph 84% 0.06 in 4 W/m2
17:12 51.1 °F 46 °F 29.9 in WSW 13 mph 26.6 mph 83% 0.06 in 1 W/m2
17:17 51.3 °F 45.7 °F 29.9 in SW 13 mph 22.1 mph 81% 0.05 in 2 W/m2
17:22 52 °F 45.7 °F 29.9 in SSW 15.9 mph 22.8 mph 79% 0.05 in 1 W/m2
17:27 52.2 °F 45.5 °F 29.9 in SW 15.2 mph 28.9 mph 78% 0.05 in 0 W/m2
17:32 52.2 °F 45.9 °F 29.9 in SW 19 mph 28.9 mph 79% 0.05 in 0 W/m2
17:37 52.2 °F 45.1 °F 29.9 in SW 18.3 mph 32 mph 77% 0.05 in 0 W/m2
17:42 52.2 °F 44.8 °F 29.9 in SW 14.5 mph 32 mph 76% 0.05 in 0 W/m2
17:47 52.2 °F 44.4 °F 29.9 in SW 11.4 mph 24.4 mph 75% 0.02 in 0 W/m2
17:52 52 °F 44.2 °F 30 in SW 14.5 mph 28.2 mph 75% 0.01 in 0 W/m2
17:57 52 °F 45.7 °F 30 in SW 19.7 mph 28.2 mph 79% 0.01 in 0 W/m2
18:02 51.4 °F 46 °F 30 in SW 11.4 mph 26.6 mph 82% 0.01 in 0 W/m2
18:07 51.3 °F 46.2 °F 30 in SW 9.2 mph 26.6 mph 83% 0.02 in 0 W/m2
18:12 51.3 °F 46.2 °F 30 in SW 15.9 mph 20.6 mph 83% 0.01 in 0 W/m2
18:17 51.1 °F 46 °F 30 in SW 11.4 mph 23.5 mph 83% 0.01 in 0 W/m2
18:22 50.7 °F 46.4 °F 30 in SW 10.7 mph 23.5 mph 85% 0.01 in 0 W/m2
18:27 50.7 °F 46.4 °F 30 in SW 15.2 mph 20.6 mph 85% 0.02 in 0 W/m2
18:32 51.6 °F 46.9 °F 30 in SW 19.7 mph 32 mph 84% 0.04 in 0 W/m2
18:37 51.6 °F 46.9 °F 30 in SW 15.2 mph 32 mph 84% 0.04 in 0 W/m2
18:42 51.3 °F 46 °F 30 in SW 15.2 mph 32 mph 82% 0.05 in 0 W/m2
18:47 51.1 °F 46 °F 30 in SW 18.3 mph 28.9 mph 83% 0.06 in 0 W/m2
18:52 51.1 °F 46 °F 30 in SW 10.7 mph 25.1 mph 83% 0.06 in 0 W/m2
18:57 50.7 °F 46 °F 30 in SSW 9.2 mph 25.1 mph 84% 0.07 in 0 W/m2
19:02 51.1 °F 46 °F 30 in SW 11.4 mph 20.6 mph 83% 0.08 in 0 W/m2
19:07 51.3 °F 46.2 °F 30 in SW 11.4 mph 22.1 mph 83% 0.07 in 0 W/m2
19:12 51.4 °F 45.5 °F 30 in SW 11.4 mph 25.9 mph 80% 0.07 in 0 W/m2
19:17 51.6 °F 46 °F 30 in SW 13 mph 25.9 mph 81% 0.07 in 0 W/m2
19:22 51.8 °F 45.9 °F 30 in SW 17.4 mph 24.4 mph 80% 0.07 in 0 W/m2
19:27 51.6 °F 46 °F 30 in SW 15.9 mph 27.3 mph 81% 0.05 in 0 W/m2
19:32 51.4 °F 46 °F 30 in SW 13 mph 27.3 mph 82% 0.05 in 0 W/m2
19:37 51.8 °F 45.9 °F 30 in SW 14.5 mph 25.1 mph 80% 0.05 in 0 W/m2
19:42 51.4 °F 45.5 °F 30 in SW 13 mph 26.6 mph 80% 0.04 in 0 W/m2
19:47 50.9 °F 45.9 °F 30 in SW 9.8 mph 26.6 mph 83% 0.02 in 0 W/m2
19:52 50.5 °F 45.9 °F 30 in SW 11.4 mph 24.4 mph 84% 0.04 in 0 W/m2
19:57 50.4 °F 45.7 °F 30 in SSW 14.5 mph 22.8 mph 84% 0.02 in 0 W/m2
20:02 50.5 °F 45.9 °F 30 in SW 7.6 mph 20.6 mph 84% 0.01 in 0 W/m2
20:07 51.1 °F 46.4 °F 30 in SW 9.2 mph 20.6 mph 84% 0.01 in 0 W/m2
20:12 51.3 °F 46.2 °F 30 in SW 13.6 mph 24.4 mph 83% 0.01 in 0 W/m2
20:17 51.4 °F 46.6 °F 30 in SW 11.4 mph 24.4 mph 83% 0.01 in 0 W/m2
20:22 51.3 °F 46.2 °F 30 in WSW 14.5 mph 28.2 mph 83% 0.02 in 0 W/m2
20:27 51.1 °F 46 °F 30 in WSW 13 mph 28.2 mph 83% 0.02 in 0 W/m2
20:32 51.3 °F 46 °F 30 in WSW 10.7 mph 24.4 mph 82% 0.02 in 0 W/m2
20:37 51.4 °F 46 °F 30 in SW 17.4 mph 28.2 mph 82% 0.02 in 0 W/m2
20:42 51.3 °F 46.6 °F 30 in SW 19 mph 28.2 mph 84% 0.02 in 0 W/m2
20:47 50.9 °F 46.6 °F 30 in SW 15.9 mph 26.6 mph 85% 0.04 in 0 W/m2
20:52 50.7 °F 46.8 °F 30 in SW 7.6 mph 26.6 mph 86% 0.02 in 0 W/m2
20:57 50.7 °F 46 °F 30 in SW 10.7 mph 22.1 mph 84% 0.02 in 0 W/m2
21:02 50.7 °F 45.9 °F 30 in SW 15.9 mph 22.1 mph 83% 0.02 in 0 W/m2
21:07 50.9 °F 45.9 °F 30 in SW 14.5 mph 21.3 mph 83% 0.02 in 0 W/m2
21:12 51.1 °F 46 °F 30 in SW 11.4 mph 23.5 mph 83% 0.02 in 0 W/m2
21:17 50.9 °F 45.9 °F 30 in SSW 12.1 mph 25.1 mph 83% 0.02 in 0 W/m2
21:22 50.7 °F 46 °F 30 in SSW 15.2 mph 25.1 mph 84% 0.02 in 0 W/m2
21:27 50.7 °F 46.4 °F 30.1 in SW 13.6 mph 25.1 mph 85% 0.02 in 0 W/m2
21:32 50.7 °F 46.8 °F 30.1 in SW 13.6 mph 25.1 mph 86% 0.02 in 0 W/m2
21:37 50.9 °F 46.6 °F 30.1 in SW 13 mph 24.4 mph 85% 0.02 in 0 W/m2
21:42 50.9 °F 46.6 °F 30.1 in SW 16.8 mph 23.5 mph 85% 0.02 in 0 W/m2
21:47 50.9 °F 46.2 °F 30.1 in SW 13 mph 25.9 mph 84% 0.02 in 0 W/m2
21:52 50.9 °F 46.2 °F 30.1 in WSW 19 mph 25.9 mph 84% 0.02 in 0 W/m2
21:57 51.1 °F 46.4 °F 30.1 in SW 13 mph 24.4 mph 84% 0.04 in 0 W/m2
22:02 51.1 °F 46.4 °F 30.1 in SW 13.6 mph 24.4 mph 84% 0.04 in 0 W/m2
22:07 51.1 °F 46.8 °F 30.1 in SW 11.4 mph 33.6 mph 85% 0.04 in 0 W/m2
22:12 51.3 °F 46.9 °F 30.1 in WSW 19 mph 33.6 mph 85% 0.04 in 0 W/m2
22:17 50.9 °F 46.6 °F 30.1 in WSW 14.5 mph 25.1 mph 85% 0.02 in 0 W/m2
22:22 50.5 °F 46.8 °F 30.1 in WSW 14.5 mph 25.1 mph 87% 0.02 in 0 W/m2
22:27 50.9 °F 46.6 °F 30.1 in SW 11.4 mph 24.4 mph 85% 0.02 in 0 W/m2
22:32 50.9 °F 46.6 °F 30.1 in SW 11.4 mph 24.4 mph 85% 0.02 in 0 W/m2
22:37 50.9 °F 46.6 °F 30.1 in SW 11.4 mph 19.7 mph 85% 0.02 in 0 W/m2
22:42 50.9 °F 46.2 °F 30.1 in SW 13.6 mph 20.6 mph 84% 0.04 in 0 W/m2
22:47 51.3 °F 46.6 °F 30.1 in SW 13.6 mph 21.3 mph 84% 0.02 in 0 W/m2
22:52 51.3 °F 46.9 °F 30.1 in SW 19 mph 22.8 mph 85% 0.02 in 0 W/m2
22:57 50.9 °F 46.6 °F 30.1 in SW 15.2 mph 22.8 mph 85% 0.01 in 0 W/m2
23:02 50.9 °F 46.6 °F 30.1 in SW 19 mph 27.3 mph 85% 0.01 in 0 W/m2
23:07 50.7 °F 46.4 °F 30.1 in WSW 12.1 mph 27.3 mph 85% 0.01 in 0 W/m2
23:12 50.7 °F 46.4 °F 30.1 in West 14.5 mph 28.2 mph 85% 0.01 in 0 W/m2
23:17 50.7 °F 46.4 °F 30.1 in West 16.8 mph 28.2 mph 85% 0.01 in 0 W/m2
23:22 50.5 °F 46.6 °F 30.1 in WSW 9.2 mph 24.4 mph 86% 0.01 in 0 W/m2
23:27 50.4 °F 46.6 °F 30.1 in WSW 9.2 mph 24.4 mph 87% 0.01 in 0 W/m2
23:32 50.5 °F 46.2 °F 30.1 in WSW 5.4 mph 22.8 mph 85% 0.01 in 0 W/m2
23:37 50.9 °F 46.6 °F 30.1 in SW 11.4 mph 22.1 mph 85% 0.01 in 0 W/m2
23:42 51.4 °F 47.1 °F 30.1 in SW 13 mph 22.1 mph 85% 0 in 0 W/m2
23:47 51.4 °F 46.8 °F 30.1 in SW 12.1 mph 17.4 mph 84% 0 in 0 W/m2
23:52 51.6 °F 46.6 °F 30.1 in SW 13.6 mph 21.3 mph 83% 0 in 0 W/m2
23:57 51.6 °F 46.6 °F 30.1 in SW 12.1 mph 22.1 mph 83% 0 in 0 W/m2
Northern Hawkes Bay. New Zealand Historic Data
Compliments of Weather Underground - 2.25 mb